Time,TemperatureF,DewpointF,PressureIn,WindDirection,WindDirectionDegrees,WindSpeedMPH,WindSpeedGustMPH,Humidity,HourlyPrecipIn,Conditions,Clouds,dailyrainin,SoftwareType,DateUTC
2013-06-22 00:02:00,82.8,62.8,28.42,NE,45,12.0,12.0,51,0.00,,,0.00,meteohub,2013-06-22 05:02:00,
2013-06-22 00:07:00,82.8,62.8,28.42,ESE,113,8.0,13.0,51,0.00,,,0.00,meteohub,2013-06-22 05:07:00,
2013-06-22 00:12:00,82.6,62.6,28.43,SE,135,6.0,13.0,51,0.00,,,0.00,meteohub,2013-06-22 05:12:00,
2013-06-22 00:17:00,82.8,62.8,28.43,East,90,10.0,13.0,51,0.00,,,0.00,meteohub,2013-06-22 05:17:00,
2013-06-22 00:22:00,82.8,62.8,28.43,East,90,8.0,11.0,51,0.00,,,0.00,meteohub,2013-06-22 05:22:00,
2013-06-22 00:27:00,82.6,62.6,28.43,SE,135,7.0,11.0,51,0.00,,,0.00,meteohub,2013-06-22 05:27:00,
2013-06-22 00:32:00,82.4,62.4,28.43,East,90,9.0,11.0,51,0.00,,,0.00,meteohub,2013-06-22 05:32:00,
2013-06-22 00:37:00,82.2,62.2,28.43,SE,135,1.0,11.0,51,0.00,,,0.00,meteohub,2013-06-22 05:37:00,
2013-06-22 00:42:00,82.0,62.1,28.43,East,90,8.0,9.0,51,0.00,,,0.00,meteohub,2013-06-22 05:42:00,
2013-06-22 00:48:00,81.9,61.9,28.43,NE,45,5.0,9.0,51,0.00,,,0.00,meteohub,2013-06-22 05:48:00,
2013-06-22 00:53:00,81.9,61.9,28.43,East,90,6.0,9.0,51,0.00,,,0.00,meteohub,2013-06-22 05:53:00,
2013-06-22 00:58:00,81.7,62.4,28.43,NE,45,4.0,9.0,52,0.00,,,0.00,meteohub,2013-06-22 05:58:00,
2013-06-22 01:03:00,81.9,61.9,28.42,NE,45,6.0,8.0,51,0.00,,,0.00,meteohub,2013-06-22 06:03:00,
2013-06-22 01:08:00,81.7,61.9,28.43,SSE,158,6.0,8.0,51,0.00,,,0.00,meteohub,2013-06-22 06:08:00,
2013-06-22 01:13:00,81.7,61.9,28.43,SE,135,8.0,8.0,51,0.00,,,0.00,meteohub,2013-06-22 06:13:00,
2013-06-22 01:18:00,81.7,61.9,28.42,WNW,293,1.0,8.0,51,0.00,,,0.00,meteohub,2013-06-22 06:18:00,
2013-06-22 01:23:00,81.7,61.2,28.42,SE,135,5.0,8.0,50,0.00,,,0.00,meteohub,2013-06-22 06:23:00,
2013-06-22 01:28:00,82.2,61.7,28.42,South,180,4.0,8.0,50,0.00,,,0.00,meteohub,2013-06-22 06:28:00,
2013-06-22 01:33:00,82.4,61.3,28.42,East,90,2.0,9.0,49,0.00,,,0.00,meteohub,2013-06-22 06:33:00,
2013-06-22 01:38:00,82.4,60.8,28.42,WNW,293,6.0,9.0,48,0.00,,,0.00,meteohub,2013-06-22 06:38:00,
2013-06-22 01:43:00,82.8,60.4,28.42,SE,135,7.0,11.0,47,0.00,,,0.00,meteohub,2013-06-22 06:43:00,
2013-06-22 01:48:00,82.8,61.0,28.42,ESE,113,8.0,11.0,48,0.00,,,0.00,meteohub,2013-06-22 06:48:00,
2013-06-22 01:53:00,82.4,60.8,28.42,SE,135,4.0,11.0,48,0.00,,,0.00,meteohub,2013-06-22 06:53:00,
2013-06-22 01:58:00,82.4,60.8,28.42,East,90,8.0,9.0,48,0.00,,,0.00,meteohub,2013-06-22 06:58:00,
2013-06-22 02:03:00,82.4,60.8,28.41,SE,135,7.0,10.0,48,0.00,,,0.00,meteohub,2013-06-22 07:03:00,
2013-06-22 02:08:00,82.0,61.0,28.42,East,90,4.0,10.0,49,0.00,,,0.00,meteohub,2013-06-22 07:08:00,
2013-06-22 02:13:00,82.0,61.0,28.42,SE,135,8.0,10.0,49,0.00,,,0.00,meteohub,2013-06-22 07:13:00,
2013-06-22 02:18:00,82.0,61.0,28.41,NE,45,4.0,8.0,49,0.00,,,0.00,meteohub,2013-06-22 07:18:00,
2013-06-22 02:23:00,81.9,60.8,28.42,East,90,4.0,9.0,49,0.00,,,0.00,meteohub,2013-06-22 07:23:00,
2013-06-22 02:28:00,81.9,60.8,28.42,SE,135,8.0,9.0,49,0.00,,,0.00,meteohub,2013-06-22 07:28:00,
2013-06-22 02:33:00,81.7,61.2,28.41,East,90,8.0,8.0,50,0.00,,,0.00,meteohub,2013-06-22 07:33:00,
2013-06-22 02:38:00,81.7,61.2,28.41,SE,135,8.0,8.0,50,0.00,,,0.00,meteohub,2013-06-22 07:38:00,
2013-06-22 02:43:00,81.5,61.0,28.41,SE,135,11.0,11.0,50,0.00,,,0.00,meteohub,2013-06-22 07:43:00,
2013-06-22 02:48:00,81.7,61.2,28.41,South,180,10.0,10.0,50,0.00,,,0.00,meteohub,2013-06-22 07:48:00,
2013-06-22 02:53:00,81.5,61.0,28.41,SSE,158,10.0,11.0,50,0.00,,,0.00,meteohub,2013-06-22 07:53:00,
2013-06-22 02:58:00,81.5,61.0,28.41,East,90,9.0,11.0,50,0.00,,,0.00,meteohub,2013-06-22 07:58:00,
2013-06-22 03:03:00,81.5,61.0,28.40,East,90,11.0,11.0,50,0.00,,,0.00,meteohub,2013-06-22 08:03:00,
2013-06-22 03:08:00,81.5,61.0,28.40,SE,135,11.0,13.0,50,0.00,,,0.00,meteohub,2013-06-22 08:08:00,
2013-06-22 03:13:00,81.7,61.2,28.41,East,90,10.0,13.0,50,0.00,,,0.00,meteohub,2013-06-22 08:13:00,
2013-06-22 03:18:00,81.7,61.2,28.41,NE,45,4.0,13.0,50,0.00,,,0.00,meteohub,2013-06-22 08:18:00,
2013-06-22 03:23:00,81.5,61.0,28.41,NW,315,4.0,11.0,50,0.00,,,0.00,meteohub,2013-06-22 08:23:00,
2013-06-22 03:28:00,81.7,61.2,28.41,ESE,113,8.0,11.0,50,0.00,,,0.00,meteohub,2013-06-22 08:28:00,
2013-06-22 03:33:00,81.5,61.0,28.41,South,180,8.0,12.0,50,0.00,,,0.00,meteohub,2013-06-22 08:33:00,
2013-06-22 03:38:00,81.5,61.0,28.40,SE,135,12.0,12.0,50,0.00,,,0.00,meteohub,2013-06-22 08:38:00,
2013-06-22 03:43:00,81.5,61.0,28.40,SE,135,8.0,12.0,50,0.00,,,0.00,meteohub,2013-06-22 08:43:00,
2013-06-22 03:49:00,81.5,61.0,28.41,SE,135,8.0,12.0,50,0.00,,,0.00,meteohub,2013-06-22 08:49:00,
2013-06-22 03:54:00,81.7,61.2,28.40,SW,225,8.0,12.0,50,0.00,,,0.00,meteohub,2013-06-22 08:54:00,
2013-06-22 03:59:00,81.5,61.0,28.40,WNW,293,6.0,12.0,50,0.00,,,0.00,meteohub,2013-06-22 08:59:00,
2013-06-22 04:04:00,81.3,61.0,28.40,SE,135,9.0,11.0,50,0.00,,,0.00,meteohub,2013-06-22 09:04:00,
2013-06-22 04:09:00,81.1,60.8,28.41,West,270,6.0,11.0,50,0.00,,,0.00,meteohub,2013-06-22 09:09:00,
2013-06-22 04:14:00,81.0,61.2,28.41,South,180,11.0,11.0,51,0.00,,,0.00,meteohub,2013-06-22 09:14:00,
2013-06-22 04:19:00,81.0,61.2,28.41,South,180,5.0,15.0,51,0.00,,,0.00,meteohub,2013-06-22 09:19:00,
2013-06-22 04:24:00,80.8,61.0,28.42,SE,135,7.0,15.0,51,0.00,,,0.00,meteohub,2013-06-22 09:24:00,
2013-06-22 04:29:00,80.8,61.0,28.42,East,90,4.0,15.0,51,0.00,,,0.00,meteohub,2013-06-22 09:29:00,
2013-06-22 04:34:00,80.6,61.3,28.42,SE,135,5.0,8.0,52,0.00,,,0.00,meteohub,2013-06-22 09:34:00,
2013-06-22 04:39:00,80.4,61.2,28.42,SE,135,3.0,8.0,52,0.00,,,0.00,meteohub,2013-06-22 09:39:00,
2013-06-22 04:44:00,80.2,61.0,28.42,ESE,113,1.0,8.0,52,0.00,,,0.00,meteohub,2013-06-22 09:44:00,
2013-06-22 04:49:00,80.1,61.3,28.42,SE,135,4.0,8.0,53,0.00,,,0.00,meteohub,2013-06-22 09:49:00,
2013-06-22 04:54:00,79.7,61.0,28.42,SE,135,3.0,9.0,53,0.00,,,0.00,meteohub,2013-06-22 09:54:00,
2013-06-22 04:59:00,79.9,61.2,28.43,East,90,4.0,9.0,53,0.00,,,0.00,meteohub,2013-06-22 09:59:00,
2013-06-22 05:04:00,79.7,61.5,28.42,NE,45,4.0,9.0,54,0.00,,,0.00,meteohub,2013-06-22 10:04:00,
2013-06-22 05:09:00,79.5,61.3,28.42,SE,135,3.0,8.0,54,0.00,,,0.00,meteohub,2013-06-22 10:09:00,
2013-06-22 05:14:00,79.2,61.2,28.43,SE,135,1.0,9.0,54,0.00,,,0.00,meteohub,2013-06-22 10:14:00,
2013-06-22 05:19:00,79.2,61.5,28.43,East,90,4.0,9.0,55,0.00,,,0.00,meteohub,2013-06-22 10:19:00,
2013-06-22 05:24:00,78.6,61.2,28.43,East,90,6.0,9.0,55,0.00,,,0.00,meteohub,2013-06-22 10:24:00,
2013-06-22 05:29:00,78.6,61.5,28.43,SW,225,5.0,8.0,56,0.00,,,0.00,meteohub,2013-06-22 10:29:00,
2013-06-22 05:34:00,78.3,61.3,28.43,SE,135,8.0,8.0,56,0.00,,,0.00,meteohub,2013-06-22 10:34:00,
2013-06-22 05:39:00,78.1,61.5,28.43,SE,135,8.0,10.0,57,0.00,,,0.00,meteohub,2013-06-22 10:39:00,
2013-06-22 05:44:00,77.5,61.2,28.43,East,90,6.0,10.0,57,0.00,,,0.00,meteohub,2013-06-22 10:44:00,
2013-06-22 05:49:00,77.0,61.5,28.43,East,90,8.0,10.0,59,0.00,,,0.00,meteohub,2013-06-22 10:49:00,
2013-06-22 05:54:00,76.5,61.5,28.43,East,90,8.0,8.0,60,0.00,,,0.00,meteohub,2013-06-22 10:54:00,
2013-06-22 05:59:00,75.6,61.7,28.43,SE,135,5.0,8.0,62,0.00,,,0.00,meteohub,2013-06-22 10:59:00,
2013-06-22 06:04:00,75.0,62.1,28.43,East,90,8.0,9.0,64,0.00,,,0.00,meteohub,2013-06-22 11:04:00,
2013-06-22 06:09:00,74.8,61.9,28.43,East,90,5.0,11.0,64,0.00,,,0.00,meteohub,2013-06-22 11:09:00,
2013-06-22 06:14:00,74.5,61.9,28.43,East,90,6.0,11.0,65,0.00,,,0.00,meteohub,2013-06-22 11:14:00,
2013-06-22 06:19:00,74.8,61.9,28.43,East,90,8.0,11.0,64,0.00,,,0.00,meteohub,2013-06-22 11:19:00,
2013-06-22 06:24:00,75.0,62.1,28.44,East,90,9.0,11.0,64,0.00,,,0.00,meteohub,2013-06-22 11:24:00,
2013-06-22 06:29:00,75.0,62.1,28.43,East,90,10.0,11.0,64,0.00,,,0.00,meteohub,2013-06-22 11:29:00,
2013-06-22 06:34:00,74.8,62.2,28.43,SE,135,12.0,12.0,65,0.00,,,0.00,meteohub,2013-06-22 11:34:00,
2013-06-22 06:39:00,74.8,62.2,28.43,East,90,8.0,13.0,65,0.00,,,0.00,meteohub,2013-06-22 11:39:00,
2013-06-22 06:44:00,75.0,62.4,28.43,East,90,8.0,13.0,65,0.00,,,0.00,meteohub,2013-06-22 11:44:00,
2013-06-22 06:49:00,75.0,62.1,28.43,East,90,8.0,13.0,64,0.00,,,0.00,meteohub,2013-06-22 11:49:00,
2013-06-22 06:54:00,75.6,62.6,28.44,East,90,7.0,11.0,64,0.00,,,0.00,meteohub,2013-06-22 11:54:00,
2013-06-22 06:59:00,75.4,62.4,28.43,NE,45,8.0,11.0,64,0.00,,,0.00,meteohub,2013-06-22 11:59:00,
2013-06-22 07:04:00,75.2,62.6,28.44,East,90,7.0,11.0,65,0.00,,,0.00,meteohub,2013-06-22 12:04:00,
2013-06-22 07:09:00,75.2,62.6,28.44,East,90,6.0,11.0,65,0.00,,,0.00,meteohub,2013-06-22 12:09:00,
2013-06-22 07:14:00,75.2,62.6,28.44,East,90,4.0,11.0,65,0.00,,,0.00,meteohub,2013-06-22 12:14:00,
2013-06-22 07:19:00,75.6,63.0,28.45,East,90,6.0,11.0,65,0.00,,,0.00,meteohub,2013-06-22 12:19:00,
2013-06-22 07:24:00,75.7,63.1,28.45,East,90,3.0,9.0,65,0.00,,,0.00,meteohub,2013-06-22 12:24:00,
2013-06-22 07:29:00,76.1,63.0,28.45,East,90,8.0,11.0,64,0.00,,,0.00,meteohub,2013-06-22 12:29:00,
2013-06-22 07:34:00,76.5,63.3,28.45,NE,45,4.0,11.0,64,0.00,,,0.00,meteohub,2013-06-22 12:34:00,
2013-06-22 07:39:00,77.0,63.0,28.45,East,90,8.0,11.0,62,0.00,,,0.00,meteohub,2013-06-22 12:39:00,
2013-06-22 07:44:00,77.5,63.5,28.45,SE,135,9.0,9.0,62,0.00,,,0.00,meteohub,2013-06-22 12:44:00,
2013-06-22 07:49:00,77.9,63.3,28.45,SE,135,4.0,8.0,61,0.00,,,0.00,meteohub,2013-06-22 12:49:00,
2013-06-22 07:54:00,78.1,63.1,28.45,South,180,6.0,9.0,60,0.00,,,0.00,meteohub,2013-06-22 12:54:00,
2013-06-22 07:59:00,78.8,63.3,28.45,SE,135,6.0,9.0,59,0.00,,,0.00,meteohub,2013-06-22 12:59:00,
2013-06-22 08:04:00,79.0,63.0,28.46,SE,135,7.0,13.0,58,0.00,,,0.00,meteohub,2013-06-22 13:04:00,
2013-06-22 08:09:00,79.5,63.0,28.46,SSE,158,7.0,13.0,57,0.00,,,0.00,meteohub,2013-06-22 13:09:00,
2013-06-22 08:14:00,80.1,63.5,28.46,NE,45,4.0,13.0,57,0.00,,,0.00,meteohub,2013-06-22 13:14:00,
2013-06-22 08:19:00,80.2,63.1,28.46,SE,135,13.0,13.0,56,0.00,,,0.00,meteohub,2013-06-22 13:19:00,
2013-06-22 08:25:00,80.4,63.3,28.46,South,180,8.0,9.0,56,0.00,,,0.00,meteohub,2013-06-22 13:25:00,
2013-06-22 08:30:00,80.8,63.1,28.45,East,90,10.0,13.0,55,0.00,,,0.00,meteohub,2013-06-22 13:30:00,
2013-06-22 08:35:00,81.1,63.5,28.46,SE,135,5.0,13.0,55,0.00,,,0.00,meteohub,2013-06-22 13:35:00,
2013-06-22 08:40:00,81.7,63.5,28.46,East,90,14.0,14.0,54,0.00,,,0.00,meteohub,2013-06-22 13:40:00,
2013-06-22 08:45:00,82.0,63.1,28.46,South,180,8.0,12.0,53,0.00,,,0.00,meteohub,2013-06-22 13:45:00,
2013-06-22 08:50:00,82.2,63.3,28.47,East,90,10.0,15.0,53,0.00,,,0.00,meteohub,2013-06-22 13:50:00,
2013-06-22 08:55:00,82.8,63.9,28.46,SE,135,3.0,15.0,53,0.00,,,0.00,meteohub,2013-06-22 13:55:00,
2013-06-22 09:00:00,83.3,63.9,28.47,SE,135,12.0,12.0,52,0.00,,,0.00,meteohub,2013-06-22 14:00:00,
2013-06-22 09:05:00,83.5,64.0,28.46,East,90,6.0,11.0,52,0.00,,,0.00,meteohub,2013-06-22 14:05:00,
2013-06-22 09:10:00,83.8,64.4,28.46,South,180,11.0,13.0,52,0.00,,,0.00,meteohub,2013-06-22 14:10:00,
2013-06-22 09:15:00,84.0,63.9,28.46,ESE,113,21.0,21.0,51,0.00,,,0.00,meteohub,2013-06-22 14:15:00,
2013-06-22 09:20:00,84.0,64.6,28.46,South,180,15.0,17.0,52,0.00,,,0.00,meteohub,2013-06-22 14:20:00,
2013-06-22 09:25:00,84.6,64.4,28.46,East,90,10.0,21.0,51,0.00,,,0.00,meteohub,2013-06-22 14:25:00,
2013-06-22 09:30:00,84.4,64.2,28.46,South,180,14.0,21.0,51,0.00,,,0.00,meteohub,2013-06-22 14:30:00,
2013-06-22 09:35:00,84.7,64.6,28.47,South,180,15.0,17.0,51,0.00,,,0.00,meteohub,2013-06-22 14:35:00,
2013-06-22 09:40:00,84.9,64.8,28.47,East,90,13.0,19.0,51,0.00,,,0.00,meteohub,2013-06-22 14:40:00,
2013-06-22 09:45:00,84.7,64.6,28.47,South,180,15.0,19.0,51,0.00,,,0.00,meteohub,2013-06-22 14:45:00,
2013-06-22 09:50:00,85.3,65.1,28.47,East,90,14.0,19.0,51,0.00,,,0.00,meteohub,2013-06-22 14:50:00,
2013-06-22 09:55:00,85.3,65.1,28.47,SW,225,21.0,21.0,51,0.00,,,0.00,meteohub,2013-06-22 14:55:00,
2013-06-22 10:00:00,85.5,65.3,28.47,South,180,17.0,18.0,51,0.00,,,0.00,meteohub,2013-06-22 15:00:00,
2013-06-22 10:05:00,85.6,64.9,28.47,South,180,14.0,21.0,50,0.00,,,0.00,meteohub,2013-06-22 15:05:00,
2013-06-22 10:10:00,86.0,65.1,28.46,East,90,16.0,21.0,50,0.00,,,0.00,meteohub,2013-06-22 15:10:00,
2013-06-22 10:15:00,86.4,64.9,28.46,SE,135,21.0,21.0,49,0.00,,,0.00,meteohub,2013-06-22 15:15:00,
2013-06-22 10:20:00,86.0,65.1,28.46,South,180,21.0,23.0,50,0.00,,,0.00,meteohub,2013-06-22 15:20:00,
2013-06-22 10:25:00,86.5,64.6,28.46,South,180,18.0,23.0,48,0.00,,,0.00,meteohub,2013-06-22 15:25:00,
2013-06-22 10:30:00,87.1,64.9,28.46,SE,135,14.0,23.0,48,0.00,,,0.00,meteohub,2013-06-22 15:30:00,
2013-06-22 10:35:00,87.4,64.8,28.45,SE,135,18.0,23.0,47,0.00,,,0.00,meteohub,2013-06-22 15:35:00,
2013-06-22 10:40:00,87.8,64.4,28.45,SE,135,15.0,23.0,46,0.00,,,0.00,meteohub,2013-06-22 15:40:00,
2013-06-22 10:45:00,88.0,64.6,28.45,South,180,12.0,23.0,46,0.00,,,0.00,meteohub,2013-06-22 15:45:00,
2013-06-22 10:50:00,88.2,64.2,28.45,South,180,18.0,23.0,45,0.00,,,0.00,meteohub,2013-06-22 15:50:00,
2013-06-22 10:55:00,88.2,63.5,28.45,South,180,20.0,21.0,44,0.00,,,0.00,meteohub,2013-06-22 15:55:00,
2013-06-22 11:00:00,88.5,64.4,28.45,South,180,9.0,21.0,45,0.00,,,0.00,meteohub,2013-06-22 16:00:00,
2013-06-22 11:05:00,88.9,62.8,28.45,SE,135,18.0,20.0,42,0.00,,,0.00,meteohub,2013-06-22 16:05:00,
2013-06-22 11:10:00,88.9,63.5,28.46,West,270,18.0,23.0,43,0.00,,,0.00,meteohub,2013-06-22 16:10:00,
2013-06-22 11:15:00,88.9,64.2,28.45,SW,225,9.0,23.0,44,0.00,,,0.00,meteohub,2013-06-22 16:15:00,
2013-06-22 11:20:00,89.8,63.7,28.45,West,270,15.0,23.0,42,0.00,,,0.00,meteohub,2013-06-22 16:20:00,
2013-06-22 11:25:00,89.8,63.7,28.45,SSE,158,8.0,18.0,42,0.00,,,0.00,meteohub,2013-06-22 16:25:00,
2013-06-22 11:30:00,90.7,63.7,28.45,SE,135,7.0,15.0,41,0.00,,,0.00,meteohub,2013-06-22 16:30:00,
2013-06-22 11:35:00,91.2,62.8,28.45,South,180,15.0,15.0,39,0.00,,,0.00,meteohub,2013-06-22 16:35:00,
2013-06-22 11:40:00,91.0,62.6,28.45,SW,225,9.0,17.0,39,0.00,,,0.00,meteohub,2013-06-22 16:40:00,
2013-06-22 11:45:00,90.9,62.4,28.45,SE,135,15.0,17.0,39,0.00,,,0.00,meteohub,2013-06-22 16:45:00,
2013-06-22 11:50:00,91.0,62.6,28.45,East,90,9.0,17.0,39,0.00,,,0.00,meteohub,2013-06-22 16:50:00,
2013-06-22 11:55:00,91.8,63.3,28.45,East,90,15.0,18.0,39,0.00,,,0.00,meteohub,2013-06-22 16:55:00,
2013-06-22 12:00:00,92.1,63.7,28.45,SE,135,7.0,18.0,39,0.00,,,0.00,meteohub,2013-06-22 17:00:00,
2013-06-22 12:05:00,92.1,63.7,28.45,NW,315,11.0,18.0,39,0.00,,,0.00,meteohub,2013-06-22 17:05:00,
2013-06-22 12:10:00,92.3,63.0,28.45,South,180,10.0,16.0,38,0.00,,,0.00,meteohub,2013-06-22 17:10:00,
2013-06-22 12:15:00,91.9,63.5,28.45,East,90,8.0,17.0,39,0.00,,,0.00,meteohub,2013-06-22 17:15:00,
2013-06-22 12:20:00,92.3,63.7,28.45,South,180,14.0,17.0,39,0.00,,,0.00,meteohub,2013-06-22 17:20:00,
2013-06-22 12:25:00,91.9,64.2,28.44,SE,135,13.0,17.0,40,0.00,,,0.00,meteohub,2013-06-22 17:25:00,
2013-06-22 12:30:00,92.5,63.9,28.44,East,90,10.0,17.0,39,0.00,,,0.00,meteohub,2013-06-22 17:30:00,
2013-06-22 12:35:00,92.3,63.7,28.44,SE,135,19.0,19.0,39,0.00,,,0.00,meteohub,2013-06-22 17:35:00,
2013-06-22 12:40:00,92.3,64.4,28.43,South,180,21.0,21.0,40,0.00,,,0.00,meteohub,2013-06-22 17:40:00,
2013-06-22 12:45:00,92.5,64.6,28.44,East,90,10.0,21.0,40,0.00,,,0.00,meteohub,2013-06-22 17:45:00,
2013-06-22 12:50:00,92.8,64.9,28.43,South,180,11.0,21.0,40,0.00,,,0.00,meteohub,2013-06-22 17:50:00,
2013-06-22 12:55:00,92.8,64.2,28.44,SW,225,16.0,21.0,39,0.00,,,0.00,meteohub,2013-06-22 17:55:00,
2013-06-22 13:00:00,92.3,64.4,28.43,South,180,13.0,20.0,40,0.00,,,0.00,meteohub,2013-06-22 18:00:00,
2013-06-22 13:05:00,93.0,64.4,28.43,South,180,15.0,20.0,39,0.00,,,0.00,meteohub,2013-06-22 18:05:00,
2013-06-22 13:11:00,93.2,65.3,28.43,SW,225,8.0,21.0,40,0.00,,,0.00,meteohub,2013-06-22 18:11:00,
2013-06-22 13:16:00,93.6,64.2,28.43,South,180,12.0,21.0,38,0.00,,,0.00,meteohub,2013-06-22 18:16:00,
2013-06-22 13:21:00,93.9,64.4,28.43,South,180,9.0,21.0,38,0.00,,,0.00,meteohub,2013-06-22 18:21:00,
2013-06-22 13:26:00,94.1,64.6,28.42,SE,135,10.0,20.0,38,0.00,,,0.00,meteohub,2013-06-22 18:26:00,
2013-06-22 13:31:00,94.8,64.4,28.42,East,90,8.0,20.0,37,0.00,,,0.00,meteohub,2013-06-22 18:31:00,
2013-06-22 13:36:00,95.2,64.0,28.42,South,180,8.0,20.0,36,0.00,,,0.00,meteohub,2013-06-22 18:36:00,
2013-06-22 13:41:00,95.5,64.4,28.41,East,90,11.0,12.0,36,0.00,,,0.00,meteohub,2013-06-22 18:41:00,
2013-06-22 13:46:00,95.4,62.6,28.40,SE,135,17.0,17.0,34,0.00,,,0.00,meteohub,2013-06-22 18:46:00,
2013-06-22 13:51:00,95.0,62.2,28.40,NW,315,15.0,18.0,34,0.00,,,0.00,meteohub,2013-06-22 18:51:00,
2013-06-22 13:56:00,95.2,63.1,28.40,NE,45,11.0,18.0,35,0.00,,,0.00,meteohub,2013-06-22 18:56:00,
2013-06-22 14:01:00,95.7,62.1,28.40,East,90,10.0,18.0,33,0.00,,,0.00,meteohub,2013-06-22 19:01:00,
2013-06-22 14:06:00,95.4,62.6,28.39,SW,225,9.0,18.0,34,0.00,,,0.00,meteohub,2013-06-22 19:06:00,
2013-06-22 14:11:00,95.5,62.8,28.39,SE,135,14.0,22.0,34,0.00,,,0.00,meteohub,2013-06-22 19:11:00,
2013-06-22 14:16:00,95.9,63.0,28.39,East,90,10.0,22.0,34,0.00,,,0.00,meteohub,2013-06-22 19:16:00,
2013-06-22 14:21:00,95.9,62.2,28.39,SE,135,17.0,22.0,33,0.00,,,0.00,meteohub,2013-06-22 19:21:00,
2013-06-22 14:26:00,95.9,62.2,28.39,SE,135,8.0,22.0,33,0.00,,,0.00,meteohub,2013-06-22 19:26:00,
2013-06-22 14:31:00,95.7,61.2,28.39,East,90,13.0,22.0,32,0.00,,,0.00,meteohub,2013-06-22 19:31:00,
2013-06-22 14:36:00,95.9,61.3,28.39,South,180,14.0,22.0,32,0.00,,,0.00,meteohub,2013-06-22 19:36:00,
2013-06-22 14:41:00,95.9,62.2,28.38,SSW,203,13.0,18.0,33,0.00,,,0.00,meteohub,2013-06-22 19:41:00,
2013-06-22 14:46:00,96.1,60.6,28.38,SSE,158,15.0,18.0,31,0.00,,,0.00,meteohub,2013-06-22 19:46:00,
2013-06-22 14:51:00,96.1,60.6,28.38,SSE,158,17.0,22.0,31,0.00,,,0.00,meteohub,2013-06-22 19:51:00,
2013-06-22 14:56:00,96.6,61.0,28.38,South,180,11.0,22.0,31,0.00,,,0.00,meteohub,2013-06-22 19:56:00,
2013-06-22 15:01:00,97.2,61.5,28.38,SW,225,16.0,21.0,31,0.00,,,0.00,meteohub,2013-06-22 20:01:00,
2013-06-22 15:06:00,97.0,62.2,28.37,SE,135,17.0,23.0,32,0.00,,,0.00,meteohub,2013-06-22 20:06:00,
2013-06-22 15:11:00,97.0,61.3,28.37,WSW,248,12.0,23.0,31,0.00,,,0.00,meteohub,2013-06-22 20:11:00,
2013-06-22 15:16:00,97.3,61.7,28.36,SW,225,8.0,23.0,31,0.00,,,0.00,meteohub,2013-06-22 20:16:00,
2013-06-22 15:21:00,97.5,60.8,28.37,South,180,13.0,17.0,30,0.00,,,0.00,meteohub,2013-06-22 20:21:00,
2013-06-22 15:26:00,97.7,59.0,28.37,SW,225,12.0,17.0,28,0.00,,,0.00,meteohub,2013-06-22 20:26:00,
2013-06-22 15:31:00,96.8,61.2,28.36,South,180,15.0,29.0,31,0.00,,,0.00,meteohub,2013-06-22 20:31:00,
2013-06-22 15:36:00,97.5,60.8,28.36,West,270,11.0,29.0,30,0.00,,,0.00,meteohub,2013-06-22 20:36:00,
2013-06-22 15:41:00,97.3,60.8,28.36,South,180,11.0,29.0,30,0.00,,,0.00,meteohub,2013-06-22 20:41:00,
2013-06-22 15:46:00,97.5,60.8,28.35,SE,135,10.0,22.0,30,0.00,,,0.00,meteohub,2013-06-22 20:46:00,
2013-06-22 15:51:00,97.2,59.5,28.35,South,180,24.0,24.0,29,0.00,,,0.00,meteohub,2013-06-22 20:51:00,
2013-06-22 15:54:00,97.0,59.4,28.35,SW,225,11.0,22.0,29,0.00,,,0.00,meteohub,2013-06-22 20:54:00,
2013-06-22 15:57:00,97.0,60.4,28.34,East,90,10.0,24.0,30,0.00,,,0.00,meteohub,2013-06-22 20:57:00,
2013-06-22 16:02:00,97.2,59.5,28.35,SE,135,20.0,24.0,29,0.00,,,0.00,meteohub,2013-06-22 21:02:00,
2013-06-22 16:07:00,97.2,58.6,28.35,East,90,13.0,24.0,28,0.00,,,0.00,meteohub,2013-06-22 21:07:00,
2013-06-22 16:12:00,97.2,59.5,28.34,WNW,293,11.0,20.0,29,0.00,,,0.00,meteohub,2013-06-22 21:12:00,
2013-06-22 16:17:00,97.3,61.7,28.34,South,180,8.0,20.0,31,0.00,,,0.00,meteohub,2013-06-22 21:17:00,
2013-06-22 16:22:00,97.3,58.8,28.34,South,180,17.0,18.0,28,0.00,,,0.00,meteohub,2013-06-22 21:22:00,
2013-06-22 16:27:00,97.2,60.6,28.34,South,180,20.0,20.0,30,0.00,,,0.00,meteohub,2013-06-22 21:27:00,
2013-06-22 16:32:00,97.3,59.7,28.34,East,90,10.0,21.0,29,0.00,,,0.00,meteohub,2013-06-22 21:32:00,
2013-06-22 16:37:00,97.7,60.1,28.34,SE,135,12.0,21.0,29,0.00,,,0.00,meteohub,2013-06-22 21:37:00,
2013-06-22 16:42:00,97.9,59.2,28.34,SE,135,17.0,21.0,28,0.00,,,0.00,meteohub,2013-06-22 21:42:00,
2013-06-22 16:47:00,97.9,60.3,28.33,SE,135,16.0,17.0,29,0.00,,,0.00,meteohub,2013-06-22 21:47:00,
2013-06-22 16:52:00,97.9,60.3,28.33,South,180,8.0,17.0,29,0.00,,,0.00,meteohub,2013-06-22 21:52:00,
2013-06-22 16:57:00,97.9,60.3,28.33,NE,45,14.0,17.0,29,0.00,,,0.00,meteohub,2013-06-22 21:57:00,
2013-06-22 17:02:00,97.5,59.9,28.32,SSW,203,11.0,20.0,29,0.00,,,0.00,meteohub,2013-06-22 22:02:00,
2013-06-22 17:07:00,97.7,59.0,28.33,East,90,15.0,20.0,28,0.00,,,0.00,meteohub,2013-06-22 22:07:00,
2013-06-22 17:12:00,97.7,60.1,28.32,NE,45,20.0,20.0,29,0.00,,,0.00,meteohub,2013-06-22 22:12:00,
2013-06-22 17:17:00,97.7,61.0,28.33,East,90,10.0,20.0,30,0.00,,,0.00,meteohub,2013-06-22 22:17:00,
2013-06-22 17:22:00,97.7,60.1,28.32,South,180,18.0,22.0,29,0.00,,,0.00,meteohub,2013-06-22 22:22:00,
2013-06-22 17:27:00,97.7,60.1,28.33,South,180,11.0,22.0,29,0.00,,,0.00,meteohub,2013-06-22 22:27:00,
2013-06-22 17:32:00,97.9,59.2,28.32,SW,225,12.0,22.0,28,0.00,,,0.00,meteohub,2013-06-22 22:32:00,
2013-06-22 17:37:00,97.7,59.0,28.32,SW,225,10.0,21.0,28,0.00,,,0.00,meteohub,2013-06-22 22:37:00,
2013-06-22 17:42:00,97.9,59.2,28.32,South,180,10.0,23.0,28,0.00,,,0.00,meteohub,2013-06-22 22:42:00,
2013-06-22 17:47:00,97.7,60.1,28.32,SW,225,8.0,23.0,29,0.00,,,0.00,meteohub,2013-06-22 22:47:00,
2013-06-22 17:52:00,98.1,58.5,28.32,SE,135,11.0,23.0,27,0.00,,,0.00,meteohub,2013-06-22 22:52:00,
2013-06-22 17:57:00,97.7,58.1,28.31,South,180,17.0,18.0,27,0.00,,,0.00,meteohub,2013-06-22 22:57:00,
2013-06-22 18:02:00,97.5,56.8,28.31,South,180,18.0,21.0,26,0.00,,,0.00,meteohub,2013-06-22 23:02:00,
2013-06-22 18:07:00,97.2,56.5,28.31,SW,225,11.0,23.0,26,0.00,,,0.00,meteohub,2013-06-22 23:07:00,
2013-06-22 18:12:00,97.3,58.8,28.31,WNW,293,13.0,23.0,28,0.00,,,0.00,meteohub,2013-06-22 23:12:00,
2013-06-22 18:17:00,97.3,58.8,28.31,SE,135,12.0,23.0,28,0.00,,,0.00,meteohub,2013-06-22 23:17:00,
2013-06-22 18:22:00,97.2,56.5,28.30,NE,45,20.0,20.0,26,0.00,,,0.00,meteohub,2013-06-22 23:22:00,
2013-06-22 18:27:00,97.2,58.6,28.30,SE,135,9.0,20.0,28,0.00,,,0.00,meteohub,2013-06-22 23:27:00,
2013-06-22 18:32:00,97.2,57.6,28.30,South,180,11.0,20.0,27,0.00,,,0.00,meteohub,2013-06-22 23:32:00,
2013-06-22 18:37:00,97.0,56.5,28.30,East,90,16.0,20.0,26,0.00,,,0.00,meteohub,2013-06-22 23:37:00,
2013-06-22 18:42:00,97.0,57.4,28.30,SE,135,10.0,17.0,27,0.00,,,0.00,meteohub,2013-06-22 23:42:00,
2013-06-22 18:47:00,96.8,56.3,28.30,SW,225,17.0,17.0,26,0.00,,,0.00,meteohub,2013-06-22 23:47:00,
2013-06-22 18:52:00,96.8,57.4,28.30,SE,135,15.0,26.0,27,0.00,,,0.00,meteohub,2013-06-22 23:52:00,
2013-06-22 18:57:00,96.6,58.1,28.30,SE,135,18.0,26.0,28,0.00,,,0.00,meteohub,2013-06-22 23:57:00,
2013-06-22 19:02:00,96.4,57.0,28.30,SE,135,15.0,26.0,27,0.00,,,0.00,meteohub,2013-06-23 00:02:00,
2013-06-22 19:07:00,96.4,57.0,28.30,SW,225,7.0,19.0,27,0.00,,,0.00,meteohub,2013-06-23 00:07:00,
2013-06-22 19:12:00,96.4,57.0,28.30,South,180,18.0,19.0,27,0.00,,,0.00,meteohub,2013-06-23 00:12:00,
2013-06-22 19:17:00,95.9,56.5,28.30,South,180,18.0,21.0,27,0.00,,,0.00,meteohub,2013-06-23 00:17:00,
2013-06-22 19:22:00,95.2,57.0,28.30,SE,135,11.0,21.0,28,0.00,,,0.00,meteohub,2013-06-23 00:22:00,
2013-06-22 19:28:00,95.0,56.8,28.31,East,90,11.0,23.0,28,0.00,,,0.00,meteohub,2013-06-23 00:28:00,
2013-06-22 19:38:00,94.6,56.5,28.31,South,180,9.0,18.0,28,0.00,,,0.00,meteohub,2013-06-23 00:38:00,
2013-06-22 19:43:00,94.8,56.7,28.31,South,180,11.0,18.0,28,0.00,,,0.00,meteohub,2013-06-23 00:43:00,
2013-06-22 19:48:00,94.5,56.3,28.31,South,180,7.0,15.0,28,0.00,,,0.00,meteohub,2013-06-23 00:48:00,
2013-06-22 19:53:00,94.3,56.1,28.31,South,180,16.0,16.0,28,0.00,,,0.00,meteohub,2013-06-23 00:53:00,
2013-06-22 19:58:00,94.3,56.1,28.31,South,180,11.0,16.0,28,0.00,,,0.00,meteohub,2013-06-23 00:58:00,
2013-06-22 20:03:00,94.3,56.1,28.32,East,90,8.0,16.0,28,0.00,,,0.00,meteohub,2013-06-23 01:03:00,
2013-06-22 20:08:00,94.1,55.9,28.32,SW,225,8.0,16.0,28,0.00,,,0.00,meteohub,2013-06-23 01:08:00,
2013-06-22 20:13:00,93.9,54.9,28.32,SE,135,6.0,15.0,27,0.00,,,0.00,meteohub,2013-06-23 01:13:00,
2013-06-22 20:18:00,93.7,55.8,28.31,East,90,7.0,11.0,28,0.00,,,0.00,meteohub,2013-06-23 01:18:00,
2013-06-22 20:24:00,93.4,55.4,28.31,East,90,7.0,11.0,28,0.00,,,0.00,meteohub,2013-06-23 01:24:00,
2013-06-22 20:29:00,93.4,55.4,28.32,South,180,10.0,11.0,28,0.00,,,0.00,meteohub,2013-06-23 01:29:00,
2013-06-22 20:34:00,92.7,55.8,28.32,SE,135,4.0,11.0,29,0.00,,,0.00,meteohub,2013-06-23 01:34:00,
2013-06-22 20:39:00,92.7,55.8,28.32,South,180,6.0,12.0,29,0.00,,,0.00,meteohub,2013-06-23 01:39:00,
2013-06-22 20:44:00,92.5,56.5,28.32,East,90,6.0,12.0,30,0.00,,,0.00,meteohub,2013-06-23 01:44:00,
2013-06-22 20:49:00,92.1,57.2,28.32,South,180,8.0,12.0,31,0.00,,,0.00,meteohub,2013-06-23 01:49:00,
2013-06-22 20:54:00,91.9,58.6,28.32,SSE,158,8.0,11.0,33,0.00,,,0.00,meteohub,2013-06-23 01:54:00,
2013-06-22 20:59:00,91.4,58.3,28.32,NE,45,7.0,8.0,33,0.00,,,0.00,meteohub,2013-06-23 01:59:00,
2013-06-22 21:04:00,90.9,58.6,28.32,East,90,10.0,11.0,34,0.00,,,0.00,meteohub,2013-06-23 02:04:00,
2013-06-22 21:09:00,90.5,59.2,28.32,SE,135,8.0,11.0,35,0.00,,,0.00,meteohub,2013-06-23 02:09:00,
2013-06-22 21:14:00,90.3,59.0,28.32,SE,135,8.0,11.0,35,0.00,,,0.00,meteohub,2013-06-23 02:14:00,
2013-06-22 21:19:00,89.8,59.2,28.32,NW,315,8.0,10.0,36,0.00,,,0.00,meteohub,2013-06-23 02:19:00,
2013-06-22 21:24:00,89.6,60.6,28.32,SE,135,8.0,10.0,38,0.00,,,0.00,meteohub,2013-06-23 02:24:00,
2013-06-22 21:29:00,89.2,60.3,28.32,East,90,8.0,10.0,38,0.00,,,0.00,meteohub,2013-06-23 02:29:00,
2013-06-22 21:34:00,88.9,60.8,28.33,East,90,5.0,10.0,39,0.00,,,0.00,meteohub,2013-06-23 02:34:00,
2013-06-22 21:39:00,88.5,60.4,28.33,East,90,5.0,10.0,39,0.00,,,0.00,meteohub,2013-06-23 02:39:00,
2013-06-22 21:44:00,88.3,60.3,28.33,NE,45,8.0,10.0,39,0.00,,,0.00,meteohub,2013-06-23 02:44:00,
2013-06-22 21:49:00,88.2,60.8,28.33,East,90,7.0,15.0,40,0.00,,,0.00,meteohub,2013-06-23 02:49:00,
2013-06-22 21:54:00,88.0,60.6,28.33,SE,135,7.0,15.0,40,0.00,,,0.00,meteohub,2013-06-23 02:54:00,
2013-06-22 21:59:00,87.6,60.3,28.34,East,90,10.0,14.0,40,0.00,,,0.00,meteohub,2013-06-23 02:59:00,
2013-06-22 22:04:00,87.4,60.8,28.34,SE,135,11.0,13.0,41,0.00,,,0.00,meteohub,2013-06-23 03:04:00,
2013-06-22 22:09:00,87.3,60.6,28.34,East,90,5.0,13.0,41,0.00,,,0.00,meteohub,2013-06-23 03:09:00,
2013-06-22 22:14:00,87.3,60.6,28.34,East,90,10.0,13.0,41,0.00,,,0.00,meteohub,2013-06-23 03:14:00,
2013-06-22 22:19:00,87.3,60.6,28.34,SE,135,8.0,12.0,41,0.00,,,0.00,meteohub,2013-06-23 03:19:00,
2013-06-22 22:24:00,87.1,60.4,28.34,ESE,113,9.0,13.0,41,0.00,,,0.00,meteohub,2013-06-23 03:24:00,
2013-06-22 22:29:00,86.7,60.3,28.34,East,90,8.0,13.0,41,0.00,,,0.00,meteohub,2013-06-23 03:29:00,
2013-06-22 22:34:00,86.5,60.1,28.34,SE,135,8.0,13.0,41,0.00,,,0.00,meteohub,2013-06-23 03:34:00,
2013-06-22 22:39:00,86.5,60.1,28.35,East,90,14.0,14.0,41,0.00,,,0.00,meteohub,2013-06-23 03:39:00,
2013-06-22 22:44:00,86.5,60.1,28.35,East,90,13.0,13.0,41,0.00,,,0.00,meteohub,2013-06-23 03:44:00,
2013-06-22 22:49:00,86.5,60.1,28.35,SE,135,11.0,14.0,41,0.00,,,0.00,meteohub,2013-06-23 03:49:00,
2013-06-22 22:54:00,86.5,60.1,28.35,East,90,10.0,14.0,41,0.00,,,0.00,meteohub,2013-06-23 03:54:00,
2013-06-22 23:00:00,86.4,59.9,28.35,SSE,158,7.0,13.0,41,0.00,,,0.00,meteohub,2013-06-23 04:00:00,
2013-06-22 23:01:00,86.4,59.9,28.35,NE,45,8.0,13.0,41,0.00,,,0.00,meteohub,2013-06-23 04:01:00,
2013-06-22 23:04:00,86.4,59.9,28.35,East,90,11.0,13.0,41,0.00,,,0.00,meteohub,2013-06-23 04:04:00,
2013-06-22 23:09:00,86.2,59.7,28.35,East,90,16.0,16.0,41,0.00,,,0.00,meteohub,2013-06-23 04:09:00,
2013-06-22 23:14:00,86.2,59.7,28.35,East,90,12.0,16.0,41,0.00,,,0.00,meteohub,2013-06-23 04:14:00,
2013-06-22 23:19:00,86.0,59.5,28.35,NW,315,13.0,16.0,41,0.00,,,0.00,meteohub,2013-06-23 04:19:00,
2013-06-22 23:24:00,85.6,59.2,28.35,NE,45,9.0,16.0,41,0.00,,,0.00,meteohub,2013-06-23 04:24:00,
2013-06-22 23:29:00,85.5,59.0,28.35,SE,135,10.0,15.0,41,0.00,,,0.00,meteohub,2013-06-23 04:29:00,
2013-06-22 23:34:00,85.5,59.0,28.35,East,90,9.0,13.0,41,0.00,,,0.00,meteohub,2013-06-23 04:34:00,
2013-06-22 23:39:00,85.5,59.0,28.34,SE,135,8.0,12.0,41,0.00,,,0.00,meteohub,2013-06-23 04:39:00,
2013-06-22 23:44:00,85.5,59.0,28.35,SE,135,7.0,13.0,41,0.00,,,0.00,meteohub,2013-06-23 04:44:00,
2013-06-22 23:49:00,85.1,58.8,28.35,East,90,10.0,15.0,41,0.00,,,0.00,meteohub,2013-06-23 04:49:00,
2013-06-22 23:54:00,85.1,58.8,28.35,SE,135,8.0,15.0,41,0.00,,,0.00,meteohub,2013-06-23 04:54:00,
2013-06-22 23:59:00,85.3,59.0,28.35,NW,315,7.0,12.0,41,0.00,,,0.00,meteohub,2013-06-23 04:59:00,